PNN808 LHBP-OBBI

Flight info

Callsign PNN808
Flight time 4h 15m
Altitude FL370
Route GAZDA DCT MAVIR DCT INVED DCT RONBU P975 ARTAT IL601 TUNLA L601 KTN R785 RASLI P559 SILBA H979 KFA H732 LADNA
Aircraft A346/H-VGDW/C

Departure

Time 2026-05-07 07:26
Airport Budapest Liszt Ferenc International Airport (LHBP)

Arrival

Time 2026-05-07 11:41
Airport Bahrain International Airport (OBBI)
Time Latitude Longitude Altitude Speed Heading
2026-05-07 06:56 47.43176 19.25855 482 ft 0 kts 42°
2026-05-07 07:17 47.43174 19.25852 471 ft 2 kts 42°
2026-05-07 07:17 47.43163 19.25837 471 ft 2 kts 42°
2026-05-07 07:18 47.43152 19.25822 470 ft 2 kts 38°
2026-05-07 07:18 47.43139 19.25812 470 ft 2 kts 13°
2026-05-07 07:18 47.43124 19.25810 469 ft 2 kts 353°
2026-05-07 07:18 47.43109 19.25815 469 ft 2 kts 334°
2026-05-07 07:19 47.43097 19.25827 469 ft 2 kts 315°
2026-05-07 07:19 47.43087 19.25844 469 ft 2 kts 308°
2026-05-07 07:19 47.43077 19.25861 468 ft 2 kts 311°
2026-05-07 07:19 47.43075 19.25865 468 ft 0 kts 312°
2026-05-07 07:21 47.43075 19.25864 468 ft 0 kts 311°
2026-05-07 07:21 47.43080 19.25855 468 ft 2 kts 310°
2026-05-07 07:22 47.43099 19.25823 469 ft 6 kts 311°
2026-05-07 07:22 47.43135 19.25766 469 ft 9 kts 313°
2026-05-07 07:22 47.43186 19.25685 469 ft 12 kts 311°
2026-05-07 07:22 47.43250 19.25581 469 ft 15 kts 313°
2026-05-07 07:23 47.43299 19.25501 469 ft 10 kts 312°
2026-05-07 07:23 47.43338 19.25432 470 ft 8 kts 294°
2026-05-07 07:23 47.43311 19.25343 468 ft 13 kts 221°
2026-05-07 07:23 47.43231 19.25238 464 ft 18 kts 222°
2026-05-07 07:24 47.43147 19.25124 459 ft 14 kts 222°
2026-05-07 07:24 47.43091 19.25047 456 ft 6 kts 222°
2026-05-07 07:24 47.43082 19.24982 454 ft 10 kts 292°
2026-05-07 07:24 47.43102 19.24938 453 ft 1 kts 309°
2026-05-07 07:25 47.43435 19.24395 440 ft 102 kts 312°
2026-05-07 07:25 47.44060 19.23387 450 ft 162 kts 312°
2026-05-07 07:25 47.44895 19.22065 774 ft 183 kts 311°
2026-05-07 07:26 47.45749 19.20704 1404 ft 185 kts 310°
2026-05-07 07:26 47.46606 19.19304 2065 ft 188 kts 309°
2026-05-07 07:26 47.47477 19.17837 2576 ft 197 kts 309°
2026-05-07 07:26 47.48385 19.16243 2972 ft 209 kts 296°
2026-05-07 07:27 47.48515 19.14124 3329 ft 216 kts 255°
2026-05-07 07:27 47.47974 19.11976 3649 ft 236 kts 248°
2026-05-07 07:27 47.47336 19.09630 3986 ft 258 kts 246°
2026-05-07 07:27 47.46265 19.07511 4652 ft 266 kts 217°
2026-05-07 07:28 47.44651 19.06253 5553 ft 267 kts 203°
2026-05-07 07:28 47.42949 19.05241 6411 ft 268 kts 203°
2026-05-07 07:28 47.41222 19.04178 7207 ft 272 kts 204°
2026-05-07 07:28 47.39503 19.03061 8003 ft 274 kts 205°
2026-05-07 07:29 47.37655 19.02503 8663 ft 282 kts 177°
2026-05-07 07:29 47.35767 19.03258 9406 ft 289 kts 154°
2026-05-07 07:29 47.34119 19.04963 10155 ft 294 kts 144°
2026-05-07 07:29 47.32495 19.06851 10674 ft 306 kts 143°
2026-05-07 07:30 47.30803 19.08862 11060 ft 322 kts 143°
2026-05-07 07:30 47.28999 19.10987 11403 ft 340 kts 143°
2026-05-07 07:30 47.27105 19.13206 11747 ft 358 kts 144°
2026-05-07 07:30 47.25118 19.15530 12092 ft 376 kts 144°
2026-05-07 07:31 47.23045 19.17956 12597 ft 387 kts 144°
2026-05-07 07:31 47.20945 19.20409 13387 ft 389 kts 144°
2026-05-07 07:31 47.18827 19.22876 14145 ft 392 kts 144°
2026-05-07 07:31 47.16697 19.25355 14833 ft 396 kts 144°
2026-05-07 07:32 47.14528 19.27879 15509 ft 400 kts 144°
2026-05-07 07:32 47.12346 19.30415 16206 ft 405 kts 144°
2026-05-07 07:32 47.10146 19.32970 16891 ft 408 kts 144°
2026-05-07 07:32 47.07924 19.35546 17552 ft 412 kts 144°
2026-05-07 07:33 47.05680 19.38142 18195 ft 416 kts 144°
2026-05-07 07:33 47.03412 19.40765 18831 ft 420 kts 144°
2026-05-07 07:33 47.01124 19.43409 19454 ft 424 kts 144°
2026-05-07 07:33 46.98795 19.46096 20065 ft 427 kts 144°
2026-05-07 07:34 46.96462 19.48786 20659 ft 431 kts 144°
2026-05-07 07:34 46.94111 19.51494 21237 ft 435 kts 144°
2026-05-07 07:34 46.91741 19.54223 21799 ft 438 kts 144°
2026-05-07 07:34 46.89350 19.56975 22352 ft 442 kts 144°
2026-05-07 07:35 46.86935 19.59751 22904 ft 446 kts 144°
2026-05-07 07:35 46.84502 19.62543 23434 ft 449 kts 144°
2026-05-07 07:35 46.82026 19.65380 23957 ft 453 kts 145°
2026-05-07 07:35 46.79550 19.68213 24473 ft 456 kts 145°
2026-05-07 07:36 46.77055 19.71064 24984 ft 460 kts 145°
2026-05-07 07:36 46.74543 19.73932 25499 ft 462 kts 146°
2026-05-07 07:36 46.72013 19.76815 25985 ft 466 kts 146°
2026-05-07 07:36 46.69462 19.79719 26471 ft 470 kts 146°
2026-05-07 07:37 46.66882 19.82652 26956 ft 474 kts 146°
2026-05-07 07:37 46.64264 19.85623 27430 ft 477 kts 146°
2026-05-07 07:37 46.61651 19.88587 27894 ft 481 kts 146°
2026-05-07 07:37 46.59018 19.91569 28347 ft 484 kts 146°
2026-05-07 07:38 46.56364 19.94572 28829 ft 487 kts 146°
2026-05-07 07:38 46.53710 19.97573 29437 ft 485 kts 146°
2026-05-07 07:38 46.51064 20.00562 30082 ft 483 kts 146°
2026-05-07 07:38 46.48430 20.03534 30694 ft 482 kts 146°
2026-05-07 07:39 46.45690 20.06622 31308 ft 481 kts 147°
2026-05-07 07:39 46.43049 20.09592 31928 ft 480 kts 147°
2026-05-07 07:39 46.40426 20.12537 32535 ft 479 kts 147°
2026-05-07 07:39 46.37812 20.15470 33147 ft 478 kts 147°
2026-05-07 07:40 46.35184 20.18416 33771 ft 477 kts 147°
2026-05-07 07:40 46.32565 20.21350 34361 ft 476 kts 147°
2026-05-07 07:40 46.29919 20.24312 34950 ft 475 kts 147°
2026-05-07 07:40 46.27306 20.27231 35519 ft 474 kts 147°
2026-05-07 07:41 46.24712 20.30122 36014 ft 474 kts 148°
2026-05-07 07:41 46.22156 20.33122 36333 ft 479 kts 143°
2026-05-07 07:41 46.19736 20.36423 36640 ft 484 kts 139°
2026-05-07 07:41 46.17486 20.40014 36950 ft 488 kts 134°
2026-05-07 07:42 46.15415 20.43888 37105 ft 492 kts 129°
2026-05-07 07:42 46.11922 20.52377 37113 ft 496 kts 119°
2026-05-07 07:43 46.09106 20.61398 37123 ft 496 kts 116°
2026-05-07 07:43 46.06325 20.70484 37068 ft 496 kts 117°
2026-05-07 07:44 46.03536 20.79504 37057 ft 495 kts 117°
2026-05-07 07:44 46.00725 20.88523 37063 ft 495 kts 117°
2026-05-07 07:45 45.97908 20.97514 37065 ft 496 kts 117°
2026-05-07 07:45 45.95082 21.06502 37065 ft 497 kts 117°
2026-05-07 07:46 45.92226 21.15555 37067 ft 498 kts 117°
2026-05-07 07:46 45.89374 21.24563 37072 ft 498 kts 117°
2026-05-07 07:47 45.86514 21.33563 37074 ft 499 kts 116°
2026-05-07 07:47 45.83639 21.42582 37074 ft 499 kts 116°
2026-05-07 07:48 45.80753 21.51602 37074 ft 499 kts 116°
2026-05-07 07:48 45.77849 21.60650 37073 ft 508 kts 116°
2026-05-07 07:49 45.74866 21.69909 37071 ft 515 kts 117°
2026-05-07 07:49 45.71853 21.79232 37072 ft 515 kts 117°
2026-05-07 07:50 45.68839 21.88520 37073 ft 516 kts 117°
2026-05-07 07:50 45.65823 21.97780 37073 ft 516 kts 116°
2026-05-07 07:51 45.62797 22.07042 37071 ft 517 kts 116°
2026-05-07 07:51 45.59751 22.16323 37071 ft 517 kts 116°
2026-05-07 07:52 45.56712 22.25554 37071 ft 517 kts 116°
2026-05-07 07:52 45.53661 22.34789 37076 ft 517 kts 116°
2026-05-07 07:53 45.50577 22.44100 37087 ft 517 kts 116°
2026-05-07 07:53 45.47509 22.53324 37039 ft 517 kts 116°
2026-05-07 07:54 45.44436 22.62529 36858 ft 517 kts 116°
2026-05-07 07:54 45.42898 22.67123 36700 ft 517 kts 117°
2026-05-07 07:54 45.41361 22.71708 36498 ft 517 kts 117°
2026-05-07 07:54 45.39801 22.76350 36247 ft 517 kts 117°
2026-05-07 07:55 45.38258 22.80935 36066 ft 517 kts 117°
2026-05-07 07:55 45.36709 22.85529 35933 ft 518 kts 117°
2026-05-07 07:55 45.35155 22.90132 35853 ft 520 kts 117°
2026-05-07 07:56 45.32028 22.99370 35762 ft 523 kts 116°
2026-05-07 07:56 45.28869 23.08668 35777 ft 524 kts 116°
2026-05-07 07:57 45.25697 23.17973 35858 ft 525 kts 116°
2026-05-07 07:57 45.24110 23.22613 35998 ft 526 kts 116°
2026-05-07 07:57 45.22526 23.27240 36257 ft 524 kts 116°
2026-05-07 07:57 45.20940 23.31863 36369 ft 525 kts 116°
2026-05-07 07:58 45.19349 23.36493 36369 ft 525 kts 116°
2026-05-07 07:58 45.16150 23.45779 36567 ft 524 kts 116°
2026-05-07 07:58 45.14559 23.50386 36749 ft 524 kts 116°
2026-05-07 07:59 45.12967 23.54988 36935 ft 523 kts 116°
2026-05-07 07:59 45.11373 23.59587 37046 ft 522 kts 116°
2026-05-07 07:59 45.09782 23.64172 37097 ft 521 kts 116°
2026-05-07 08:00 45.06588 23.73348 37127 ft 520 kts 117°
2026-05-07 08:00 45.03399 23.82478 37094 ft 519 kts 116°
2026-05-07 08:01 45.00211 23.91574 37107 ft 519 kts 116°
2026-05-07 08:01 44.97012 24.00672 37093 ft 520 kts 116°
2026-05-07 08:02 44.93794 24.09793 37085 ft 520 kts 116°
2026-05-07 08:02 44.90579 24.18869 37082 ft 520 kts 116°
2026-05-07 08:03 44.87360 24.27931 37080 ft 519 kts 116°
2026-05-07 08:03 44.84128 24.37006 37085 ft 519 kts 116°
2026-05-07 08:04 44.80888 24.46070 37090 ft 519 kts 116°
2026-05-07 08:04 44.77651 24.55102 37094 ft 519 kts 116°
2026-05-07 08:05 44.74407 24.64113 37094 ft 519 kts 116°
2026-05-07 08:05 44.71130 24.73187 37091 ft 519 kts 116°
2026-05-07 08:06 44.67871 24.82178 37091 ft 519 kts 116°
2026-05-07 08:06 44.64609 24.91149 37090 ft 518 kts 116°
2026-05-07 08:07 44.61333 25.00133 37090 ft 518 kts 116°
2026-05-07 08:07 44.58064 25.09064 37090 ft 518 kts 116°
2026-05-07 08:08 44.54785 25.17994 37091 ft 518 kts 116°
2026-05-07 08:08 44.51500 25.26910 37092 ft 518 kts 116°
2026-05-07 08:09 44.48196 25.35853 37092 ft 518 kts 116°
2026-05-07 08:09 44.44883 25.44797 37092 ft 517 kts 116°
2026-05-07 08:10 44.41569 25.53713 37092 ft 517 kts 116°
2026-05-07 08:10 44.38244 25.62627 37093 ft 517 kts 116°
2026-05-07 08:11 44.34924 25.71499 37094 ft 517 kts 117°
2026-05-07 08:11 44.31598 25.80356 37097 ft 517 kts 117°
2026-05-07 08:12 44.28263 25.89210 37097 ft 518 kts 116°
2026-05-07 08:12 44.24910 25.98086 37099 ft 518 kts 116°
2026-05-07 08:13 44.21560 26.06925 37099 ft 519 kts 116°
2026-05-07 08:13 44.18178 26.15820 37099 ft 519 kts 116°
2026-05-07 08:14 44.14781 26.24729 37100 ft 519 kts 116°
2026-05-07 08:14 44.11389 26.33600 37102 ft 519 kts 116°
2026-05-07 08:15 44.08007 26.42412 37103 ft 519 kts 116°
2026-05-07 08:15 44.04437 26.51067 37102 ft 519 kts 121°
2026-05-07 08:16 44.00307 26.59291 37103 ft 520 kts 124°
2026-05-07 08:16 43.96107 26.67423 37102 ft 520 kts 125°
2026-05-07 08:17 43.91914 26.75536 37102 ft 520 kts 125°
2026-05-07 08:17 43.87681 26.83716 37100 ft 520 kts 124°
2026-05-07 08:18 43.83476 26.91823 37103 ft 521 kts 124°
2026-05-07 08:18 43.79254 26.99945 37107 ft 522 kts 124°
2026-05-07 08:19 43.75002 27.08103 37111 ft 523 kts 124°
2026-05-07 08:19 43.70746 27.16244 37115 ft 523 kts 124°
2026-05-07 08:20 43.66493 27.24355 37119 ft 523 kts 124°
2026-05-07 08:20 43.62236 27.32454 37123 ft 523 kts 124°
2026-05-07 08:21 43.57960 27.40566 37127 ft 524 kts 124°
2026-05-07 08:21 43.53672 27.48679 37132 ft 524 kts 124°
2026-05-07 08:22 43.49363 27.56807 37136 ft 525 kts 124°
2026-05-07 08:22 43.45077 27.64871 37143 ft 525 kts 124°
2026-05-07 08:23 43.40743 27.73003 37149 ft 525 kts 124°
2026-05-07 08:23 43.36391 27.81143 37155 ft 525 kts 124°
2026-05-07 08:24 43.32050 27.89241 37159 ft 526 kts 124°
2026-05-07 08:24 43.27703 27.97332 37161 ft 526 kts 124°
2026-05-07 08:25 43.23354 28.05401 37158 ft 526 kts 124°
2026-05-07 08:25 43.19015 28.13431 37148 ft 525 kts 124°
2026-05-07 08:26 43.12477 28.25488 37158 ft 525 kts 124°
2026-05-07 08:26 43.08138 28.33465 37166 ft 525 kts 124°
2026-05-07 08:27 43.03790 28.41438 37167 ft 524 kts 124°
2026-05-07 08:27 42.99431 28.49404 37168 ft 524 kts 124°
2026-05-07 08:28 42.95061 28.57369 37167 ft 524 kts 124°
2026-05-07 08:28 42.90693 28.65308 37166 ft 524 kts 125°
2026-05-07 08:29 42.86305 28.73267 37164 ft 524 kts 125°
2026-05-07 08:29 42.81885 28.81262 37164 ft 523 kts 126°
2026-05-07 08:30 42.77500 28.89172 37164 ft 523 kts 126°
2026-05-07 08:30 42.73130 28.97033 37163 ft 523 kts 125°
2026-05-07 08:31 42.68757 29.04886 37162 ft 523 kts 125°
2026-05-07 08:31 42.64366 29.12749 37162 ft 522 kts 125°
2026-05-07 08:32 42.59995 29.20555 37161 ft 522 kts 125°
2026-05-07 08:32 42.55590 29.28400 37161 ft 521 kts 125°
2026-05-07 08:33 42.51160 29.36271 37375 ft 523 kts 125°
2026-05-07 08:33 42.48960 29.40172 37556 ft 523 kts 125°
2026-05-07 08:33 42.46762 29.44068 37722 ft 523 kts 125°
2026-05-07 08:34 42.44564 29.47960 37894 ft 523 kts 125°
2026-05-07 08:34 42.42360 29.51856 38082 ft 523 kts 125°
2026-05-07 08:34 42.40155 29.55742 38274 ft 523 kts 126°
2026-05-07 08:34 42.37871 29.59545 38464 ft 523 kts 129°
2026-05-07 08:35 42.35379 29.63242 38654 ft 523 kts 132°
2026-05-07 08:35 42.32778 29.66679 38828 ft 523 kts 136°
2026-05-07 08:35 42.30068 29.69935 38988 ft 523 kts 137°
2026-05-07 08:35 42.27342 29.73166 39141 ft 523 kts 138°
2026-05-07 08:36 42.21895 29.79620 39197 ft 521 kts 137°
2026-05-07 08:36 42.16466 29.86056 39208 ft 520 kts 137°
2026-05-07 08:37 42.11066 29.92451 39182 ft 519 kts 137°
2026-05-07 08:37 42.05647 29.98856 39175 ft 519 kts 137°
2026-05-07 08:38 42.00228 30.05246 39182 ft 519 kts 137°
2026-05-07 08:38 41.94772 30.11665 39185 ft 519 kts 137°
2026-05-07 08:39 41.89298 30.18090 39187 ft 519 kts 137°
2026-05-07 08:39 41.83879 30.24436 39189 ft 519 kts 137°
2026-05-07 08:40 41.78439 30.30792 39184 ft 520 kts 137°
2026-05-07 08:40 41.72995 30.37140 39183 ft 520 kts 137°
2026-05-07 08:41 41.67534 30.43497 39178 ft 520 kts 137°
2026-05-07 08:41 41.62096 30.49807 39177 ft 520 kts 137°
2026-05-07 08:42 41.56668 30.56183 39174 ft 520 kts 137°
2026-05-07 08:42 41.51265 30.62579 39173 ft 520 kts 137°
2026-05-07 08:43 41.45835 30.68984 39171 ft 521 kts 136°
2026-05-07 08:43 41.40712 30.75810 39171 ft 520 kts 130°
2026-05-07 08:44 41.36045 30.83096 39173 ft 520 kts 128°
2026-05-07 08:44 41.31392 30.90425 39173 ft 520 kts 129°
2026-05-07 08:45 41.26724 30.97735 39175 ft 521 kts 129°
2026-05-07 08:45 41.22028 31.05057 39176 ft 521 kts 129°
2026-05-07 08:46 41.17650 31.11903 39176 ft 521 kts 129°
2026-05-07 08:46 41.12653 31.19722 39175 ft 521 kts 129°
2026-05-07 08:47 41.07959 31.27033 39176 ft 521 kts 129°
2026-05-07 08:47 41.03278 31.34290 39178 ft 521 kts 129°
2026-05-07 08:48 40.98589 31.41553 39132 ft 521 kts 129°
2026-05-07 08:48 40.93892 31.48820 39002 ft 520 kts 129°
2026-05-07 08:49 40.89165 31.56118 38859 ft 521 kts 129°
2026-05-07 08:49 40.84445 31.63387 38792 ft 522 kts 129°
2026-05-07 08:50 40.79721 31.70645 38750 ft 522 kts 129°
2026-05-07 08:50 40.74986 31.77903 38680 ft 522 kts 129°
2026-05-07 08:51 40.72628 31.81512 38508 ft 522 kts 129°
2026-05-07 08:51 40.70259 31.85133 38306 ft 521 kts 129°
2026-05-07 08:51 40.67904 31.88730 38156 ft 521 kts 129°
2026-05-07 08:51 40.65524 31.92361 38038 ft 521 kts 129°
2026-05-07 08:52 40.60793 31.99564 37854 ft 522 kts 129°
2026-05-07 08:52 40.56042 32.06783 37765 ft 524 kts 129°
2026-05-07 08:53 40.51272 32.14019 38058 ft 522 kts 129°
2026-05-07 08:53 40.48919 32.17580 38376 ft 517 kts 129°
2026-05-07 08:53 40.46589 32.21103 38700 ft 512 kts 129°
2026-05-07 08:54 40.44278 32.24610 38992 ft 509 kts 129°
2026-05-07 08:54 40.41964 32.28134 39139 ft 510 kts 129°
2026-05-07 08:54 40.37293 32.35245 39234 ft 517 kts 129°
2026-05-07 08:55 40.32559 32.42433 39239 ft 524 kts 130°
2026-05-07 08:55 40.27801 32.49634 39243 ft 525 kts 130°
2026-05-07 08:56 40.23042 32.56823 39248 ft 525 kts 130°
2026-05-07 08:56 40.18256 32.64042 39252 ft 525 kts 130°
2026-05-07 08:57 40.13488 32.71215 39251 ft 525 kts 130°
2026-05-07 08:57 40.08440 32.78041 39250 ft 525 kts 137°
2026-05-07 08:58 40.02823 32.84113 39253 ft 524 kts 144°
2026-05-07 08:58 39.96774 32.89343 39264 ft 524 kts 148°
2026-05-07 08:59 39.90619 32.94359 39269 ft 523 kts 149°
2026-05-07 08:59 39.84425 32.99417 39280 ft 524 kts 149°
2026-05-07 09:00 39.78233 33.04470 39288 ft 523 kts 149°
2026-05-07 09:00 39.72094 33.09472 39277 ft 523 kts 149°
2026-05-07 09:01 39.65962 33.14459 39269 ft 523 kts 149°
2026-05-07 09:01 39.59793 33.19471 39262 ft 522 kts 149°
2026-05-07 09:02 39.53638 33.24458 39255 ft 522 kts 149°
2026-05-07 09:02 39.47589 33.29343 39251 ft 522 kts 149°
2026-05-07 09:03 39.41350 33.34059 39256 ft 521 kts 154°
2026-05-07 09:03 39.35001 33.38671 39259 ft 522 kts 149°
2026-05-07 09:04 39.28822 33.43517 39259 ft 522 kts 150°
2026-05-07 09:04 39.22626 33.48376 39254 ft 522 kts 150°
2026-05-07 09:05 39.16399 33.53246 39255 ft 522 kts 150°
2026-05-07 09:05 39.10193 33.58089 39260 ft 521 kts 150°
2026-05-07 09:06 39.03986 33.62924 39264 ft 521 kts 150°
2026-05-07 09:06 38.97797 33.67736 39262 ft 521 kts 150°
2026-05-07 09:07 38.91575 33.72563 39263 ft 522 kts 151°
2026-05-07 09:07 38.85365 33.77371 39264 ft 522 kts 151°
2026-05-07 09:08 38.79143 33.82178 39266 ft 522 kts 151°
2026-05-07 09:08 38.72903 33.86991 39270 ft 522 kts 151°
2026-05-07 09:09 38.66662 33.91794 39268 ft 522 kts 151°
2026-05-07 09:09 38.60460 33.96560 39265 ft 522 kts 151°
2026-05-07 09:10 38.54234 34.01337 39264 ft 522 kts 151°
2026-05-07 09:10 38.47984 34.06101 39262 ft 522 kts 152°
2026-05-07 09:11 38.41740 34.10834 39251 ft 522 kts 152°
2026-05-07 09:11 38.35519 34.15549 39252 ft 522 kts 152°
2026-05-07 09:12 38.29269 34.20281 39273 ft 522 kts 152°
2026-05-07 09:12 38.23056 34.24976 39283 ft 522 kts 152°
2026-05-07 09:13 38.16806 34.29691 39292 ft 522 kts 152°
2026-05-07 09:13 38.10557 34.34397 39309 ft 522 kts 152°
2026-05-07 09:14 38.04299 34.39102 39339 ft 522 kts 152°
2026-05-07 09:14 37.98068 34.43781 39365 ft 522 kts 152°
2026-05-07 09:15 37.91846 34.48442 39375 ft 521 kts 152°
2026-05-07 09:15 37.85570 34.53170 39328 ft 521 kts 152°
2026-05-07 09:16 37.79349 34.57913 39283 ft 521 kts 152°
2026-05-07 09:16 37.73148 34.62636 39269 ft 522 kts 152°
2026-05-07 09:17 37.66935 34.67357 39065 ft 522 kts 152°
2026-05-07 09:17 37.63796 34.69739 38846 ft 521 kts 152°
2026-05-07 09:17 37.60692 34.72089 38592 ft 520 kts 153°
2026-05-07 09:18 37.57600 34.74406 38352 ft 519 kts 153°
2026-05-07 09:18 37.54497 34.76697 38186 ft 519 kts 153°
2026-05-07 09:18 37.51389 34.78984 38070 ft 519 kts 153°
2026-05-07 09:18 37.48250 34.81294 37980 ft 520 kts 153°
2026-05-07 09:19 37.41934 34.85945 37961 ft 521 kts 153°
2026-05-07 09:19 37.35669 34.90557 38126 ft 522 kts 153°
2026-05-07 09:20 37.32540 34.92859 38373 ft 520 kts 153°
2026-05-07 09:20 37.29430 34.95147 38681 ft 517 kts 153°
2026-05-07 09:20 37.26347 34.97413 38932 ft 515 kts 153°
2026-05-07 09:20 37.23259 34.99679 39081 ft 516 kts 153°
2026-05-07 09:21 37.16991 35.04265 39169 ft 520 kts 153°
2026-05-07 09:21 37.10755 35.08826 39182 ft 520 kts 153°
2026-05-07 09:22 37.04532 35.13373 39178 ft 519 kts 153°
2026-05-07 09:22 36.98272 35.17938 39176 ft 519 kts 154°
2026-05-07 09:23 36.92097 35.22543 39174 ft 520 kts 152°
2026-05-07 09:23 36.85987 35.27354 39172 ft 520 kts 152°
2026-05-07 09:24 36.79871 35.32171 39172 ft 519 kts 152°
2026-05-07 09:24 36.73752 35.36986 39172 ft 519 kts 152°
2026-05-07 09:25 36.67656 35.41774 39172 ft 518 kts 152°
2026-05-07 09:25 36.61535 35.46574 39172 ft 518 kts 152°
2026-05-07 09:26 36.55432 35.51350 39172 ft 518 kts 152°
2026-05-07 09:26 36.49324 35.56122 39171 ft 517 kts 152°
2026-05-07 09:27 36.43255 35.60852 39171 ft 517 kts 152°
2026-05-07 09:28 36.34142 35.67943 39170 ft 516 kts 153°
2026-05-07 09:28 36.28088 35.72643 39174 ft 515 kts 153°
2026-05-07 09:29 36.22024 35.77340 39177 ft 515 kts 153°
2026-05-07 09:29 36.15953 35.82035 39185 ft 515 kts 153°
2026-05-07 09:30 36.09866 35.86733 39192 ft 515 kts 153°
2026-05-07 09:30 36.03783 35.91422 39193 ft 514 kts 153°
2026-05-07 09:31 35.97702 35.96103 39191 ft 514 kts 153°
2026-05-07 09:31 35.91622 36.00775 39196 ft 514 kts 153°
2026-05-07 09:32 35.85517 36.05384 39202 ft 513 kts 154°
2026-05-07 09:32 35.79350 36.09789 39155 ft 512 kts 155°
2026-05-07 09:33 35.73186 36.14184 39012 ft 512 kts 155°
2026-05-07 09:33 35.67021 36.18598 38997 ft 512 kts 155°
2026-05-07 09:34 35.60876 36.23000 39099 ft 512 kts 155°
2026-05-07 09:34 35.54721 36.27408 39177 ft 512 kts 155°
2026-05-07 09:35 35.48547 36.31825 39184 ft 511 kts 154°
2026-05-07 09:35 35.42499 36.36360 39203 ft 511 kts 153°
2026-05-07 09:36 35.36473 36.40933 39223 ft 511 kts 153°
2026-05-07 09:36 35.30443 36.45490 39226 ft 510 kts 153°
2026-05-07 09:37 35.24407 36.50035 39215 ft 509 kts 153°
2026-05-07 09:37 35.18407 36.54540 39212 ft 507 kts 153°
2026-05-07 09:38 35.12388 36.59052 39218 ft 506 kts 154°
2026-05-07 09:38 35.06381 36.63547 39224 ft 505 kts 154°
2026-05-07 09:39 35.00399 36.68015 39227 ft 504 kts 154°
2026-05-07 09:39 34.94427 36.72468 39231 ft 503 kts 154°
2026-05-07 09:40 34.88473 36.76900 39234 ft 503 kts 154°
2026-05-07 09:40 34.82499 36.81340 39236 ft 502 kts 154°
2026-05-07 09:41 34.76561 36.85744 39219 ft 501 kts 154°
2026-05-07 09:41 34.70639 36.90129 39177 ft 500 kts 154°
2026-05-07 09:42 34.64721 36.94505 39125 ft 499 kts 154°
2026-05-07 09:42 34.58774 36.98894 39151 ft 499 kts 155°
2026-05-07 09:43 34.52842 37.03266 39223 ft 499 kts 155°
2026-05-07 09:43 34.46926 37.07619 39230 ft 498 kts 155°
2026-05-07 09:44 34.40993 37.11980 39218 ft 497 kts 155°
2026-05-07 09:44 34.35096 37.16309 39212 ft 497 kts 155°
2026-05-07 09:45 34.29198 37.20631 39211 ft 496 kts 155°
2026-05-07 09:45 34.23308 37.24936 39214 ft 495 kts 156°
2026-05-07 09:46 34.17243 37.28821 39224 ft 490 kts 160°
2026-05-07 09:46 34.11128 37.32465 39239 ft 489 kts 160°
2026-05-07 09:47 34.05058 37.36085 39254 ft 488 kts 160°
2026-05-07 09:47 33.98948 37.39725 39265 ft 488 kts 160°
2026-05-07 09:48 33.92875 37.43339 39275 ft 487 kts 160°
2026-05-07 09:48 33.86810 37.46945 39271 ft 485 kts 160°
2026-05-07 09:49 33.80784 37.50521 39249 ft 483 kts 161°
2026-05-07 09:49 33.74731 37.54105 39233 ft 483 kts 161°
2026-05-07 09:50 33.68705 37.57670 39221 ft 483 kts 161°
2026-05-07 09:50 33.62689 37.61228 39205 ft 483 kts 161°
2026-05-07 09:51 33.56645 37.64793 39192 ft 483 kts 161°
2026-05-07 09:51 33.50607 37.68291 39185 ft 481 kts 162°
2026-05-07 09:52 33.44556 37.71761 39181 ft 481 kts 162°
2026-05-07 09:52 33.38533 37.75196 39174 ft 481 kts 162°
2026-05-07 09:53 33.32473 37.78637 39166 ft 481 kts 162°
2026-05-07 09:53 33.26445 37.82063 39157 ft 480 kts 162°
2026-05-07 09:54 33.20408 37.85492 39152 ft 480 kts 162°
2026-05-07 09:54 33.14368 37.88919 39150 ft 480 kts 162°
2026-05-07 09:55 33.08358 37.92326 39150 ft 479 kts 162°
2026-05-07 09:55 33.02353 37.95728 39149 ft 479 kts 162°
2026-05-07 09:56 32.96357 37.99117 39149 ft 478 kts 162°
2026-05-07 09:56 32.90363 38.02597 39148 ft 479 kts 160°
2026-05-07 09:57 32.84418 38.06155 39147 ft 478 kts 161°
2026-05-07 09:57 32.78483 38.09680 39145 ft 477 kts 161°
2026-05-07 09:58 32.72548 38.13197 39142 ft 476 kts 161°
2026-05-07 09:58 32.66649 38.16690 39142 ft 475 kts 161°
2026-05-07 09:59 32.60743 38.20184 39142 ft 475 kts 161°
2026-05-07 09:59 32.54826 38.23683 39143 ft 475 kts 161°
2026-05-07 10:00 32.48895 38.27184 39143 ft 474 kts 161°
2026-05-07 10:00 32.43009 38.30654 39145 ft 474 kts 161°
2026-05-07 10:01 32.37120 38.34120 39146 ft 474 kts 161°
2026-05-07 10:01 32.31211 38.37593 39148 ft 473 kts 161°
2026-05-07 10:02 32.25330 38.41042 39151 ft 473 kts 161°
2026-05-07 10:02 32.19449 38.44487 39153 ft 473 kts 161°
2026-05-07 10:03 32.13571 38.47928 39154 ft 473 kts 161°
2026-05-07 10:03 32.07664 38.51384 39155 ft 473 kts 161°
2026-05-07 10:04 32.01784 38.54821 39151 ft 473 kts 161°
2026-05-07 10:04 31.95900 38.58256 39139 ft 473 kts 161°
2026-05-07 10:05 31.89987 38.61697 39126 ft 473 kts 161°
2026-05-07 10:05 31.84061 38.65143 39124 ft 472 kts 161°
2026-05-07 10:06 31.78214 38.68591 39124 ft 474 kts 159°
2026-05-07 10:06 31.72565 38.72654 39127 ft 482 kts 153°
2026-05-07 10:07 31.67232 38.77558 39128 ft 491 kts 147°
2026-05-07 10:07 31.62355 38.83242 39127 ft 500 kts 140°
2026-05-07 10:08 31.57795 38.89398 39125 ft 501 kts 139°
2026-05-07 10:08 31.53231 38.95583 39124 ft 501 kts 139°
2026-05-07 10:09 31.48677 39.01729 39126 ft 501 kts 139°
2026-05-07 10:09 31.44120 39.07861 39126 ft 501 kts 139°
2026-05-07 10:10 31.39556 39.13991 39126 ft 501 kts 139°
2026-05-07 10:10 31.34963 39.20148 39125 ft 502 kts 139°
2026-05-07 10:11 31.30377 39.26286 39124 ft 503 kts 140°
2026-05-07 10:11 31.25795 39.32405 39122 ft 503 kts 140°
2026-05-07 10:12 31.21189 39.38547 39122 ft 503 kts 140°
2026-05-07 10:12 31.16590 39.44672 39123 ft 503 kts 140°
2026-05-07 10:13 31.11980 39.50803 39124 ft 503 kts 140°
2026-05-07 10:13 31.07381 39.56910 39124 ft 503 kts 140°
2026-05-07 10:14 31.02763 39.63034 39125 ft 503 kts 140°
2026-05-07 10:14 30.98160 39.69129 39124 ft 502 kts 140°
2026-05-07 10:15 30.93562 39.75207 39124 ft 503 kts 140°
2026-05-07 10:15 30.88939 39.81308 39124 ft 503 kts 140°
2026-05-07 10:16 30.84290 39.87434 39123 ft 504 kts 140°
2026-05-07 10:16 30.79644 39.93548 39129 ft 504 kts 140°
2026-05-07 10:17 30.75005 39.99646 39134 ft 504 kts 140°
2026-05-07 10:17 30.70353 40.05755 39135 ft 504 kts 141°
2026-05-07 10:18 30.65725 40.11819 39131 ft 504 kts 141°
2026-05-07 10:18 30.61207 40.18090 39129 ft 512 kts 136°
2026-05-07 10:19 30.57183 40.24986 39132 ft 522 kts 129°
2026-05-07 10:19 30.53643 40.32343 39131 ft 525 kts 127°
2026-05-07 10:20 30.50151 40.39757 39129 ft 526 kts 127°
2026-05-07 10:20 30.46633 40.47169 39127 ft 526 kts 127°
2026-05-07 10:21 30.43092 40.54596 39130 ft 527 kts 127°
2026-05-07 10:21 30.39561 40.61986 39139 ft 527 kts 127°
2026-05-07 10:22 30.36106 40.69174 39140 ft 526 kts 128°
2026-05-07 10:22 30.32543 40.76570 39139 ft 526 kts 128°
2026-05-07 10:23 30.28998 40.83929 39135 ft 526 kts 128°
2026-05-07 10:23 30.25454 40.91284 39132 ft 526 kts 128°
2026-05-07 10:24 30.21899 40.98650 39128 ft 526 kts 128°
2026-05-07 10:24 30.18327 41.06039 39124 ft 527 kts 128°
2026-05-07 10:25 30.14764 41.13401 39121 ft 528 kts 128°
2026-05-07 10:25 30.11193 41.20771 39117 ft 529 kts 128°
2026-05-07 10:26 30.07593 41.28170 39113 ft 529 kts 128°
2026-05-07 10:26 30.03982 41.35538 39109 ft 529 kts 128°
2026-05-07 10:27 30.00363 41.42920 39106 ft 530 kts 128°
2026-05-07 10:27 29.96737 41.50318 39103 ft 531 kts 128°
2026-05-07 10:28 29.93098 41.57735 39094 ft 531 kts 128°
2026-05-07 10:28 29.89473 41.65110 39090 ft 532 kts 128°
2026-05-07 10:29 29.85848 41.72478 39095 ft 531 kts 128°
2026-05-07 10:29 29.82205 41.79864 39097 ft 531 kts 128°
2026-05-07 10:30 29.76754 41.90899 39095 ft 531 kts 128°
2026-05-07 10:30 29.73120 41.98248 39092 ft 531 kts 128°
2026-05-07 10:31 29.69461 42.05617 39082 ft 531 kts 129°
2026-05-07 10:31 29.65802 42.12943 39071 ft 531 kts 129°
2026-05-07 10:32 29.62141 42.20275 39073 ft 531 kts 128°
2026-05-07 10:32 29.58476 42.27617 39081 ft 531 kts 128°
2026-05-07 10:33 29.54792 42.34987 39082 ft 531 kts 128°
2026-05-07 10:33 29.51120 42.42323 39078 ft 531 kts 128°
2026-05-07 10:34 29.47452 42.49634 39075 ft 531 kts 128°
2026-05-07 10:34 29.43766 42.56971 39074 ft 531 kts 128°
2026-05-07 10:35 29.40081 42.64293 39073 ft 531 kts 129°
2026-05-07 10:35 29.36397 42.71602 39072 ft 531 kts 129°
2026-05-07 10:36 29.32711 42.78898 39074 ft 532 kts 129°
2026-05-07 10:36 29.29001 42.86231 39074 ft 532 kts 129°
2026-05-07 10:37 29.25304 42.93529 39073 ft 532 kts 129°
2026-05-07 10:37 29.21584 43.00864 39070 ft 533 kts 129°
2026-05-07 10:38 29.17865 43.08187 39068 ft 532 kts 129°
2026-05-07 10:38 29.14149 43.15463 39068 ft 532 kts 129°
2026-05-07 10:39 29.10419 43.22740 39068 ft 532 kts 129°
2026-05-07 10:39 29.06697 43.30007 39068 ft 532 kts 129°
2026-05-07 10:40 29.02946 43.37329 39068 ft 533 kts 129°
2026-05-07 10:40 28.99203 43.44634 39069 ft 533 kts 129°
2026-05-07 10:41 28.95457 43.51924 39069 ft 533 kts 129°
2026-05-07 10:41 28.91683 43.59210 39067 ft 533 kts 129°
2026-05-07 10:42 28.87918 43.66472 39062 ft 533 kts 130°
2026-05-07 10:42 28.84159 43.73732 39057 ft 532 kts 130°
2026-05-07 10:43 28.80393 43.80998 39052 ft 532 kts 130°
2026-05-07 10:43 28.76622 43.88261 39050 ft 532 kts 130°
2026-05-07 10:44 28.72861 43.95495 39049 ft 533 kts 130°
2026-05-07 10:44 28.69093 44.02729 39048 ft 533 kts 130°
2026-05-07 10:45 28.65309 44.09981 39048 ft 533 kts 130°
2026-05-07 10:45 28.61527 44.17215 39043 ft 533 kts 130°
2026-05-07 10:46 28.57729 44.24469 39039 ft 534 kts 130°
2026-05-07 10:46 28.53931 44.31710 39044 ft 535 kts 130°
2026-05-07 10:47 28.50108 44.38986 39048 ft 535 kts 130°
2026-05-07 10:47 28.46290 44.46243 39045 ft 535 kts 130°
2026-05-07 10:48 28.42475 44.53480 39044 ft 535 kts 130°
2026-05-07 10:48 28.38630 44.60763 39045 ft 535 kts 130°
2026-05-07 10:49 28.34793 44.68018 39039 ft 535 kts 130°
2026-05-07 10:49 28.30972 44.75232 39040 ft 535 kts 130°
2026-05-07 10:50 28.27140 44.82456 39039 ft 535 kts 130°
2026-05-07 10:50 28.23302 44.89680 39037 ft 535 kts 130°
2026-05-07 10:51 28.19460 44.96907 39035 ft 536 kts 130°
2026-05-07 10:51 28.15617 45.04124 39033 ft 537 kts 130°
2026-05-07 10:52 28.11734 45.11384 39030 ft 537 kts 130°
2026-05-07 10:52 28.07874 45.18584 39028 ft 538 kts 130°
2026-05-07 10:53 28.04010 45.25792 39026 ft 539 kts 130°
2026-05-07 10:53 28.00140 45.33015 39024 ft 540 kts 130°
2026-05-07 10:54 27.96240 45.40294 39024 ft 540 kts 130°
2026-05-07 10:54 27.92375 45.47567 39024 ft 543 kts 128°
2026-05-07 10:55 27.88990 45.55265 39028 ft 554 kts 121°
2026-05-07 10:55 27.86366 45.63522 39030 ft 564 kts 113°
2026-05-07 10:56 27.84498 45.72124 39030 ft 568 kts 110°
2026-05-07 10:56 27.82777 45.80812 39031 ft 568 kts 110°
2026-05-07 10:57 27.81018 45.89488 39030 ft 568 kts 110°
2026-05-07 10:57 27.79223 45.98179 39029 ft 568 kts 110°
2026-05-07 10:58 27.77431 46.06826 39028 ft 568 kts 110°
2026-05-07 10:58 27.75635 46.15478 39028 ft 569 kts 110°
2026-05-07 10:59 27.73821 46.24181 39033 ft 568 kts 110°
2026-05-07 10:59 27.71995 46.32856 39041 ft 568 kts 110°
2026-05-07 11:00 27.70179 46.41496 39042 ft 568 kts 110°
2026-05-07 11:00 27.68365 46.50130 39042 ft 567 kts 110°
2026-05-07 11:01 27.66548 46.58766 39039 ft 567 kts 110°
2026-05-07 11:01 27.64732 46.67369 39029 ft 566 kts 110°
2026-05-07 11:02 27.62912 46.75955 39027 ft 565 kts 110°
2026-05-07 11:02 27.61081 46.84571 39024 ft 565 kts 110°
2026-05-07 11:03 27.59252 46.93152 39018 ft 565 kts 110°
2026-05-07 11:03 27.57415 47.01742 39012 ft 565 kts 110°
2026-05-07 11:04 27.55580 47.10293 39007 ft 564 kts 110°
2026-05-07 11:04 27.53731 47.18891 39004 ft 564 kts 110°
2026-05-07 11:05 27.51884 47.27457 39000 ft 564 kts 110°
2026-05-07 11:05 27.50032 47.36019 38995 ft 564 kts 110°
2026-05-07 11:06 27.48167 47.44619 38988 ft 564 kts 110°
2026-05-07 11:06 27.46307 47.53188 38983 ft 565 kts 110°
2026-05-07 11:07 27.44411 47.61727 38982 ft 562 kts 112°
2026-05-07 11:07 27.42094 47.70104 38984 ft 559 kts 115°
2026-05-07 11:08 27.39700 47.78454 39001 ft 559 kts 115°
2026-05-07 11:08 27.37328 47.86753 39017 ft 559 kts 115°
2026-05-07 11:09 27.34969 47.95043 39017 ft 559 kts 115°
2026-05-07 11:09 27.32579 48.03438 39010 ft 559 kts 115°
2026-05-07 11:10 27.30223 48.11766 38994 ft 560 kts 114°
2026-05-07 11:10 27.27997 48.20140 38976 ft 560 kts 113°
2026-05-07 11:11 27.25790 48.28528 38963 ft 560 kts 112°
2026-05-07 11:11 27.23562 48.36941 38955 ft 559 kts 112°
2026-05-07 11:12 27.21381 48.45162 38949 ft 545 kts 112°
2026-05-07 11:12 27.19224 48.53251 38944 ft 542 kts 112°
2026-05-07 11:13 27.17023 48.61478 38939 ft 542 kts 112°
2026-05-07 11:13 27.14859 48.69565 38931 ft 541 kts 113°
2026-05-07 11:14 27.12695 48.77600 38928 ft 539 kts 114°
2026-05-07 11:14 27.10072 48.85366 38740 ft 527 kts 121°
2026-05-07 11:15 27.08472 48.89051 38226 ft 523 kts 125°
2026-05-07 11:15 27.06686 48.92572 37567 ft 522 kts 129°
2026-05-07 11:15 27.04709 48.95957 36924 ft 519 kts 133°
2026-05-07 11:15 27.02586 48.99197 36211 ft 517 kts 135°
2026-05-07 11:16 27.00434 49.02397 35503 ft 516 kts 135°
2026-05-07 11:16 26.98284 49.05588 34757 ft 516 kts 135°
2026-05-07 11:16 26.96133 49.08789 33963 ft 517 kts 134°
2026-05-07 11:16 26.93967 49.12020 33114 ft 519 kts 134°
2026-05-07 11:17 26.91814 49.15240 32271 ft 520 kts 134°
2026-05-07 11:17 26.89659 49.18464 31426 ft 520 kts 134°
2026-05-07 11:17 26.87504 49.21690 30573 ft 520 kts 134°
2026-05-07 11:17 26.85348 49.24917 29654 ft 521 kts 134°
2026-05-07 11:18 26.83193 49.28140 28834 ft 519 kts 133°
2026-05-07 11:18 26.81047 49.31354 28096 ft 516 kts 133°
2026-05-07 11:18 26.78905 49.34558 27433 ft 510 kts 133°
2026-05-07 11:18 26.76808 49.37691 26974 ft 500 kts 133°
2026-05-07 11:19 26.74743 49.40757 26516 ft 492 kts 132°
2026-05-07 11:19 26.72694 49.43790 26053 ft 488 kts 132°
2026-05-07 11:19 26.70666 49.46798 25595 ft 485 kts 131°
2026-05-07 11:19 26.68657 49.49780 25161 ft 481 kts 131°
2026-05-07 11:20 26.66660 49.52748 24726 ft 477 kts 131°
2026-05-07 11:20 26.64667 49.55707 24283 ft 473 kts 131°
2026-05-07 11:20 26.62700 49.58626 23828 ft 469 kts 130°
2026-05-07 11:20 26.60756 49.61510 23377 ft 465 kts 130°
2026-05-07 11:21 26.58825 49.64375 22936 ft 461 kts 130°
2026-05-07 11:21 26.56912 49.67211 22500 ft 457 kts 130°
2026-05-07 11:21 26.55015 49.70018 22073 ft 453 kts 130°
2026-05-07 11:21 26.53134 49.72800 21652 ft 449 kts 130°
2026-05-07 11:22 26.51328 49.75646 21203 ft 448 kts 123°
2026-05-07 11:22 26.50054 49.78804 20760 ft 449 kts 110°
2026-05-07 11:22 26.49397 49.82181 20319 ft 448 kts 98°
2026-05-07 11:22 26.49177 49.85628 19890 ft 445 kts 95°
2026-05-07 11:23 26.49019 49.89050 19449 ft 442 kts 94°
2026-05-07 11:23 26.48866 49.92442 19009 ft 438 kts 95°
2026-05-07 11:23 26.48703 49.95809 18567 ft 434 kts 95°
2026-05-07 11:23 26.48532 49.99160 18122 ft 430 kts 95°
2026-05-07 11:24 26.48357 50.02466 17677 ft 427 kts 95°
2026-05-07 11:24 26.48178 50.05737 17231 ft 423 kts 95°
2026-05-07 11:24 26.47998 50.08986 16783 ft 420 kts 95°
2026-05-07 11:24 26.47817 50.12209 16332 ft 416 kts 95°
2026-05-07 11:25 26.47637 50.15407 15885 ft 412 kts 95°
2026-05-07 11:25 26.47458 50.18570 15440 ft 408 kts 95°
2026-05-07 11:25 26.47279 50.21727 14993 ft 405 kts 94°
2026-05-07 11:25 26.47103 50.24838 14542 ft 402 kts 94°
2026-05-07 11:26 26.46927 50.27919 14093 ft 398 kts 94°
2026-05-07 11:26 26.46751 50.30973 13643 ft 395 kts 94°
2026-05-07 11:26 26.46575 50.34004 13195 ft 392 kts 94°
2026-05-07 11:26 26.46612 50.37011 12739 ft 389 kts 84°
2026-05-07 11:27 26.47129 50.39944 12291 ft 386 kts 74°
2026-05-07 11:27 26.48051 50.42752 11847 ft 383 kts 68°
2026-05-07 11:27 26.49069 50.45469 11403 ft 380 kts 67°
2026-05-07 11:27 26.50089 50.48153 11018 ft 373 kts 67°
2026-05-07 11:28 26.51062 50.50771 10868 ft 359 kts 69°
2026-05-07 11:28 26.51485 50.53441 10677 ft 347 kts 94°
2026-05-07 11:28 26.50851 50.55963 10469 ft 336 kts 117°
2026-05-07 11:28 26.49505 50.58040 10144 ft 330 kts 135°
2026-05-07 11:29 26.47794 50.59734 9785 ft 324 kts 139°
2026-05-07 11:29 26.46197 50.61313 9796 ft 292 kts 137°
2026-05-07 11:29 26.44704 50.62791 9250 ft 289 kts 138°
2026-05-07 11:29 26.43205 50.64279 8498 ft 292 kts 137°
2026-05-07 11:30 26.41723 50.65777 8067 ft 282 kts 137°
2026-05-07 11:30 26.40296 50.67237 7805 ft 278 kts 136°
2026-05-07 11:30 26.38880 50.68700 7494 ft 278 kts 136°
2026-05-07 11:30 26.37468 50.70187 7187 ft 278 kts 133°
2026-05-07 11:31 26.36204 50.71800 6909 ft 279 kts 126°
2026-05-07 11:31 26.35090 50.73603 6900 ft 286 kts 122°
2026-05-07 11:31 26.34015 50.75474 6904 ft 288 kts 121°
2026-05-07 11:31 26.32942 50.77357 6626 ft 289 kts 121°
2026-05-07 11:32 26.30802 50.81103 5996 ft 285 kts 121°
2026-05-07 11:32 26.29731 50.82963 5748 ft 281 kts 121°
2026-05-07 11:32 26.28702 50.84746 5682 ft 268 kts 121°
2026-05-07 11:33 26.27720 50.86450 5615 ft 257 kts 121°
2026-05-07 11:33 26.26772 50.88088 5540 ft 247 kts 121°
2026-05-07 11:33 26.25839 50.89674 5282 ft 246 kts 122°
2026-05-07 11:33 26.24868 50.91248 4933 ft 249 kts 123°
2026-05-07 11:34 26.23868 50.92823 4579 ft 252 kts 128°
2026-05-07 11:34 26.22417 50.94061 4215 ft 275 kts 157°
2026-05-07 11:34 26.20526 50.94393 3853 ft 279 kts 187°
2026-05-07 11:34 26.18723 50.93723 3620 ft 273 kts 214°
2026-05-07 11:35 26.17425 50.92246 3383 ft 266 kts 242°
2026-05-07 11:35 26.16914 50.90321 3143 ft 259 kts 269°
2026-05-07 11:35 26.17104 50.88365 2929 ft 253 kts 280°
2026-05-07 11:35 26.17399 50.86464 2771 ft 247 kts 281°
2026-05-07 11:36 26.17682 50.84602 2631 ft 239 kts 280°
2026-05-07 11:36 26.17946 50.82800 2441 ft 235 kts 279°
2026-05-07 11:36 26.18198 50.81028 2146 ft 231 kts 279°
2026-05-07 11:36 26.18455 50.79315 1815 ft 219 kts 283°
2026-05-07 11:37 26.18920 50.77765 1544 ft 205 kts 295°
2026-05-07 11:37 26.19554 50.76440 1484 ft 183 kts 301°
2026-05-07 11:37 26.20191 50.75316 1456 ft 161 kts 303°
2026-05-07 11:37 26.20785 50.74304 1466 ft 153 kts 303°
2026-05-07 11:38 26.21360 50.73318 1484 ft 151 kts 303°
2026-05-07 11:38 26.21926 50.72336 1475 ft 151 kts 303°
2026-05-07 11:38 26.22486 50.71358 1306 ft 149 kts 303°
2026-05-07 11:38 26.23039 50.70395 1122 ft 147 kts 303°
2026-05-07 11:39 26.23584 50.69451 941 ft 144 kts 303°
2026-05-07 11:39 26.24118 50.68521 763 ft 142 kts 303°
2026-05-07 11:39 26.24653 50.67605 586 ft 139 kts 303°
2026-05-07 11:39 26.25177 50.66704 436 ft 139 kts 303°
2026-05-07 11:40 26.25698 50.65807 220 ft 138 kts 302°
2026-05-07 11:40 26.26193 50.64906 63 ft 136 kts 302°
2026-05-07 11:40 26.26698 50.64035 8 ft 127 kts 303°
2026-05-07 11:40 26.27079 50.63374 5 ft 70 kts 302°
2026-05-07 11:41 26.27234 50.63086 5 ft 26 kts 289°
2026-05-07 11:41 26.27251 50.62948 5 ft 18 kts 271°
2026-05-07 11:41 26.27255 50.62806 5 ft 19 kts 275°
2026-05-07 11:41 26.27259 50.62677 5 ft 15 kts 257°
2026-05-07 11:42 26.27226 50.62639 5 ft 7 kts 203°
2026-05-07 11:42 26.27168 50.62654 5 ft 11 kts 137°
2026-05-07 11:42 26.27130 50.62708 5 ft 5 kts 136°
2026-05-07 11:42 26.27097 50.62712 5 ft 5 kts 209°
2026-05-07 11:43 26.27072 50.62691 5 ft 3 kts 217°
2026-05-07 11:43 26.27062 50.62683 5 ft 1 kts 213°
2026-05-07 11:43 26.27053 50.62677 5 ft 1 kts 212°
2026-05-07 11:43 26.27051 50.62675 5 ft 2 kts 213°
2026-05-07 11:44 26.27049 50.62674 5 ft 0 kts 213°